O3B FM4 (39189 NORAD) Tracking and Keplerian Element Data

This shows tracking and keplerian element data for the satellite.

Feedback or suggestion? Click here.




ElementValue
Catalog39189
NameO3B FM4
Epoch Orbit9999
Epoch Day348.70750062
Epoch Year2018
RAAN3.7579
Inclination0.0528
Eccentricity0.0002587
Argument of Perigee259.4348
Mean Anonmoly96.7807
Mean Motion5.00115811
Decay Rate-1.8E-07
L11 39189U 13031B 18348.70750062 -.00000018 00000-0 00000-0 0 9999
L22 39189 0.0528 3.7579 0002587 259.4348 96.7807 5.00115811 99990

Live tracking and technical data element details for O3B FM4 (NORAD 39189). O3B FM4 can be tracked NOW for your location showing map with azimuth and elevation plus other details from your city location.

Track the satellite on the map from your city or location and see movement details for azimuth, elevation, latitude, longitude, range, height, and movement on the map or in text.







IsCatalogInMostPopularTable: catalog: 39189, numindb: 103
Update: records affected: 1



GetName: 39189 O3B FM4

Hit Count: updated at: Sun, 16 Dec 2018 04:38:50 GMT